Home > Weather > Istanbul > Past weeks

Flag for Turkey Past Weather in Istanbul, Turkey — Yesterday and Last 2 Weeks

Now
82 °F

Sunny.


Feels Like: 83 °F
Forecast: 68 / 85 °F
Wind: 13 mph from North

Location: Istanbul Ataturk Airport

Current Time: Jun 27, 2016 at 7:53:36 PM

Latest Report: Jun 27, 2016 at 7:20 PM


Visibility: 10 mi

Pressure: 29.77 "Hg

Humidity: 48%

Dew Point: 61 °F

Location of IstanbulLocation

Past Weather in Istanbul — Graph

°F

Istanbul Temperature Yesterday

Maximum temperature yesterday: 88 °F (at 3:50 PM)
Minimum temperature yesterday: 75 °F (at 2:50 AM)
Average temperature yesterday: 80 °F

High & Low Weather Summary for the Past Weeks

 TemperatureHumidityPressure
High95 °F (Jun 18, 4:50 PM)88% (Jun 14, 11:20 PM)30.09 "Hg (Jun 14, 11:20 PM)
Low64 °F (Jun 14, 6:50 AM)20% (Jun 13, 7:20 PM)29.56 "Hg (Jun 14, 4:50 PM)
Average79 °F58%29.90 "Hg
* Reported Jun 12 6:20 PM — Jun 27 6:50 PM, Istanbul, Weather by CustomWeather, © 2016

Note: Actual official high and low records may vary slightly from our data, if they occured in-between our weather recording intervals... More about our weather records

Advertising

Istanbul Weather History for the Previous 24 Hours

Scroll right to see more
 ConditionsComfort  
Time TempWeatherWind HumidityBarometerVisibility
6:50 PM
Mon, Jun 27
84 °FPassing clouds.13 mph45%29.77 "HgN/A
6:20 PM84 °FSunny.15 mph43%29.77 "Hg10 mi
5:50 PM86 °FSunny.14 mph43%29.77 "Hg10 mi
5:20 PM86 °FSunny.15 mph40%29.77 "Hg10 mi
4:50 PM86 °FPassing clouds.16 mph40%29.77 "HgN/A
4:20 PM86 °FPassing clouds.15 mph43%29.80 "HgN/A
3:50 PM86 °FPassing clouds.17 mph40%29.80 "HgN/A
3:20 PM86 °FPassing clouds.16 mph43%29.80 "HgN/A
2:50 PM86 °FPassing clouds.12 mph46%29.80 "HgN/A
2:20 PM86 °FPassing clouds.14 mph46%29.80 "HgN/A
1:50 PM84 °FPassing clouds.12 mph51%29.80 "HgN/A
1:20 PM84 °FScattered clouds.10 mph55%29.80 "HgN/A
12:50 PM84 °FScattered clouds.12 mph51%29.80 "HgN/A
12:20 PM86 °FScattered clouds.9 mph52%29.80 "HgN/A
11:50 AM84 °FScattered clouds.9 mph55%29.80 "HgN/A
11:20 AM82 °FScattered clouds.12 mph62%29.80 "HgN/A
10:50 AM82 °FScattered clouds.9 mph58%29.83 "HgN/A
10:20 AM82 °FScattered clouds.13 mph58%29.83 "HgN/A
9:50 AM81 °FScattered clouds.9 mph66%29.83 "HgN/A
9:20 AM79 °FScattered clouds.9 mph74%29.83 "HgN/A
8:50 AM79 °FScattered clouds.9 mph74%29.83 "HgN/A
8:20 AM77 °FPartly sunny.7 mph79%29.83 "HgN/A
7:50 AM77 °FPartly sunny.6 mph79%29.83 "HgN/A
7:20 AM75 °FBroken clouds.5 mph83%29.83 "HgN/A
6:50 AM75 °FBroken clouds.5 mph83%29.83 "HgN/A
6:20 AM75 °FPartly cloudy.5 mph83%29.83 "HgN/A
5:50 AM75 °FPartly cloudy.3 mph83%29.83 "HgN/A
5:20 AM75 °FPartly cloudy.5 mph83%29.83 "HgN/A
4:50 AM77 °FPassing clouds.8 mph74%29.83 "HgN/A
4:20 AM77 °FPassing clouds.9 mph74%29.80 "HgN/A
3:50 AM77 °FPassing clouds.10 mph74%29.80 "HgN/A
3:20 AM79 °FPassing clouds.9 mph70%29.80 "HgN/A
2:50 AM79 °FPassing clouds.10 mph74%29.83 "HgN/A
2:20 AM75 °FPassing clouds.5 mph83%29.86 "HgN/A
1:50 AM77 °FPassing clouds.6 mph79%29.89 "HgN/A
1:20 AM77 °FPassing clouds.7 mph74%29.86 "HgN/A
12:50 AM77 °FPassing clouds.12 mph79%29.86 "HgN/A
12:20 AM77 °FPassing clouds.9 mph79%29.86 "HgN/A
11:50 PM
Sun, Jun 26
77 °FPartly cloudy.14 mph74%29.83 "HgN/A
11:20 PM77 °FPassing clouds.9 mph79%29.86 "HgN/A
10:50 PM79 °FPassing clouds.12 mph74%29.86 "HgN/A
10:20 PM77 °FPassing clouds.14 mph79%29.83 "HgN/A
9:50 PM79 °FPassing clouds.17 mph74%29.83 "HgN/A
9:20 PM81 °FBroken clouds.14 mph70%29.83 "HgN/A
8:50 PM81 °FBroken clouds.12 mph70%29.83 "HgN/A
8:20 PM79 °FBroken clouds.15 mph70%29.83 "HgN/A
7:50 PM79 °FPartly sunny.13 mph70%29.83 "HgN/A
7:20 PM81 °FPartly sunny.14 mph70%29.83 "HgN/A
Weather by CustomWeather, © 2016

See weather overviewHow to use our weather pages